Location: Ferchesar
(52.6477°N, 12.4298°E)
Time: 14:45:35
(UTC+01:00)

Tiros 1 despin weight - Pass Details

Date: 06 December 2021
Orbit: 592 x 641 km, 48.2° (Epoch: 20 January)

Event Time Altitude Azimuth Distance (km) Brightness Sun altitude
Rises 16:55:31 0° 273° (W) 2,828 ? -8.4°
Reaches altitude 10° 16:57:59 10° 263° (W) 1,923 ? -8.7°
Maximum altitude 17:01:51 31° 202° (SSW) 1,046 ? -9.3°
Drops below altitude 10° 17:05:44 10° 140° (SE) 1,923 ? -9.8°
Sets 17:08:12 0° 130° (SE) 2,827 ? -10.1°
